When you browse on this site, cookies collect data to enhance your experience and personalize the content and advertising you see.
Visit our Privacy Policy to learn more. By continuing to use the site, you agree to this use of cookies and data.
  • In Latvia
  • List of Countries
  • For 7 days
  • Water Temperature
  • Satellite Maps
  • Weather Map
  • Weather Widgets
  • user-avatar
    Login

    Hourly Weather Gomel

    Today, 21 April, Sunday

    Time Temperature Precipitation Wind Pressure Humidity
    00:00 +9°C° 0.1 mm 2 mps 756 mmHg 61%
    01:00 +9°C° 0.1 mm 2 mps 756 mmHg 62%
    02:00 +9°C° 0 mm 2 mps 755 mmHg 57%
    03:00 +8°C° 0 mm 2 mps 755 mmHg 59%
    04:00 +8°C° 0 mm 2 mps 755 mmHg 61%
    05:00 +8°C° 0 mm 3 mps 755 mmHg 63%
    06:00 +9°C° 0 mm 3 mps 755 mmHg 59%
    07:00 +10°C° 0 mm 4 mps 755 mmHg 55%
    08:00 +12°C° 0 mm 5 mps 755 mmHg 52%
    09:00 +13°C° 0 mm 5 mps 755 mmHg 47%
    10:00 +14°C° 0 mm 5 mps 755 mmHg 42%
    11:00 +15°C° 0 mm 5 mps 756 mmHg 37%
    12:00 +15°C° 0 mm 5 mps 756 mmHg 36%
    13:00 +15°C° 0 mm 5 mps 756 mmHg 36%
    14:00 +16°C° 0 mm 5 mps 755 mmHg 35%
    15:00 +15°C° 0 mm 5 mps 756 mmHg 37%
    16:00 +15°C° 0 mm 5 mps 756 mmHg 38%
    17:00 +14°C° 0 mm 4 mps 756 mmHg 40%
    18:00 +13°C° 0 mm 4 mps 756 mmHg 43%
    19:00 +12°C° 0 mm 3 mps 756 mmHg 47%
    20:00 +11°C° 0 mm 3 mps 757 mmHg 50%
    21:00 +12°C° 0 mm 2 mps 757 mmHg 51%
    22:00 +10°C° 0 mm 2 mps 758 mmHg 52%
    23:00 +10°C° 0 mm 2 mps 758 mmHg 52%

    Tomorrow, 22 April, Monday

    Time Temperature Precipitation Wind Pressure Humidity
    00:00 +9°C° 0 mm 2 mps 758 mmHg 53%
    01:00 +9°C° 0 mm 2 mps 759 mmHg 54%
    02:00 +8°C° 0 mm 2 mps 759 mmHg 55%
    03:00 +7°C° 0 mm 2 mps 759 mmHg 57%
    04:00 +7°C° 0 mm 2 mps 759 mmHg 58%
    05:00 +6°C° 0 mm 2 mps 759 mmHg 59%
    06:00 +8°C° 0 mm 2 mps 760 mmHg 55%
    07:00 +9°C° 0 mm 2 mps 760 mmHg 51%
    08:00 +12°C° 0 mm 2 mps 760 mmHg 47%
    09:00 +12°C° 0 mm 3 mps 760 mmHg 41%
    10:00 +14°C° 0 mm 3 mps 760 mmHg 36%
    11:00 +16°C° 0 mm 3 mps 761 mmHg 30%
    12:00 +16°C° 0 mm 3 mps 760 mmHg 30%
    13:00 +16°C° 0 mm 3 mps 760 mmHg 30%
    14:00 +16°C° 0 mm 3 mps 760 mmHg 30%
    15:00 +16°C° 0 mm 3 mps 760 mmHg 31%
    16:00 +16°C° 0 mm 2 mps 760 mmHg 32%
    17:00 +16°C° 0 mm 2 mps 760 mmHg 34%
    18:00 +14°C° 0 mm 2 mps 760 mmHg 38%
    19:00 +13°C° 0 mm 1 mps 760 mmHg 43%
    20:00 +11°C° 0 mm 1 mps 761 mmHg 47%
    21:00 +10°C° 0 mm 1 mps 761 mmHg 48%
    22:00 +9°C° 0 mm 0 mps 761 mmHg 50%
    23:00 +8°C° 0 mm 0 mps 761 mmHg 51%

    Day after tomorrow, 23 April, Tuesday

    Time Temperature Precipitation Wind Pressure Humidity
    00:00 +8°C° 0 mm 0 mps 762 mmHg 51%
    01:00 +9°C° 0 mm 1 mps 762 mmHg 51%
    02:00 +9°C° 0 mm 1 mps 762 mmHg 51%
    03:00 +10°C° 0 mm 1 mps 762 mmHg 51%
    04:00 +10°C° 0 mm 1 mps 762 mmHg 51%
    05:00 +9°C° 0 mm 2 mps 762 mmHg 51%
    06:00 +10°C° 0 mm 2 mps 762 mmHg 50%
    07:00 +12°C° 0 mm 2 mps 763 mmHg 50%
    08:00 +13°C° 0 mm 2 mps 763 mmHg 49%
    09:00 +15°C° 0 mm 2 mps 763 mmHg 43%
    10:00 +16°C° 0 mm 2 mps 763 mmHg 38%
    11:00 +17°C° 0 mm 2 mps 763 mmHg 32%
    12:00 +17°C° 0 mm 2 mps 762 mmHg 32%
    13:00 +17°C° 0 mm 2 mps 762 mmHg 33%
    14:00 +18°C° 0 mm 2 mps 762 mmHg 33%
    15:00 +17°C° 0 mm 2 mps 762 mmHg 35%
    16:00 +17°C° 0 mm 2 mps 761 mmHg 36%
    17:00 +17°C° 0 mm 3 mps 761 mmHg 37%
    18:00 +16°C° 0 mm 2 mps 761 mmHg 41%
    19:00 +14°C° 0 mm 2 mps 761 mmHg 45%
    20:00 +13°C° 0 mm 2 mps 762 mmHg 48%
    21:00 +13°C° 0 mm 2 mps 762 mmHg 50%
    22:00 +12°C° 0 mm 2 mps 762 mmHg 51%
    23:00 +12°C° 0 mm 2 mps 762 mmHg 53%

    24 April, Wednesday

    Time Temperature Precipitation Wind Pressure Humidity
    00:00 +11°C° 0 mm 1 mps 762 mmHg 55%
    01:00 +10°C° 0 mm 1 mps 762 mmHg 58%
    02:00 +10°C° 0 mm 1 mps 762 mmHg 60%
    03:00 +10°C° 0 mm 1 mps 762 mmHg 62%
    04:00 +9°C° 0 mm 1 mps 762 mmHg 63%
    05:00 +9°C° 0 mm 1 mps 762 mmHg 65%
    06:00 +11°C° 0 mm 1 mps 762 mmHg 60%
    07:00 +12°C° 0 mm 2 mps 763 mmHg 55%
    08:00 +14°C° 0 mm 2 mps 763 mmHg 50%
    09:00 +16°C° 0 mm 2 mps 763 mmHg 45%
    10:00 +17°C° 0 mm 3 mps 762 mmHg 41%
    11:00 +18°C° 0 mm 4 mps 762 mmHg 36%
    12:00 +19°C° 0 mm 4 mps 762 mmHg 36%
    13:00 +19°C° 0 mm 4 mps 762 mmHg 35%
    14:00 +20°C° 0 mm 4 mps 761 mmHg 35%
    15:00 +19°C° 0 mm 4 mps 761 mmHg 37%
    16:00 +19°C° 0 mm 3 mps 761 mmHg 38%
    17:00 +19°C° 0 mm 3 mps 761 mmHg 40%
    18:00 +17°C° 0 mm 3 mps 761 mmHg 45%
    19:00 +15°C° 0 mm 2 mps 761 mmHg 50%
    20:00 +14°C° 0 mm 2 mps 761 mmHg 54%
    21:00 +13°C° 0 mm 2 mps 761 mmHg 56%
    22:00 +12°C° 0 mm 2 mps 761 mmHg 58%
    23:00 +12°C° 0 mm 2 mps 761 mmHg 59%

    25 April, Thursday

    Time Temperature Precipitation Wind Pressure Humidity
    00:00 +10°C° 0 mm 2 mps 761 mmHg 60%
    01:00 +10°C° 0 mm 2 mps 762 mmHg 62%
    02:00 +10°C° 0 mm 2 mps 762 mmHg 63%
    03:00 +9°C° 0 mm 2 mps 762 mmHg 64%
    04:00 +9°C° 0 mm 2 mps 762 mmHg 66%
    05:00 +9°C° 0 mm 2 mps 762 mmHg 67%
    06:00 +10°C° 0 mm 2 mps 762 mmHg 62%
    07:00 +13°C° 0 mm 2 mps 762 mmHg 58%
    08:00 +14°C° 0 mm 3 mps 762 mmHg 53%
    09:00 +17°C° 0 mm 3 mps 761 mmHg 48%
    10:00 +18°C° 0 mm 4 mps 761 mmHg 43%
    11:00 +20°C° 0 mm 4 mps 761 mmHg 38%
    12:00 +20°C° 0 mm 4 mps 761 mmHg 38%
    13:00 +21°C° 0 mm 4 mps 760 mmHg 37%
    14:00 +21°C° 0 mm 4 mps 760 mmHg 37%
    15:00 +21°C° 0 mm 4 mps 759 mmHg 39%
    16:00 +20°C° 0 mm 4 mps 759 mmHg 41%
    17:00 +20°C° 0 mm 4 mps 758 mmHg 42%
    18:00 +18°C° 0 mm 4 mps 758 mmHg 48%
    19:00 +17°C° 0 mm 3 mps 758 mmHg 53%
    20:00 +14°C° 0 mm 3 mps 758 mmHg 58%
    21:00 +13°C° 0 mm 3 mps 758 mmHg 60%
    22:00 +13°C° 0 mm 3 mps 758 mmHg 62%
    23:00 +12°C° 0 mm 3 mps 758 mmHg 64%

    26 April, Friday

    Time Temperature Precipitation Wind Pressure Humidity
    00:00 +11°C° 0 mm 3 mps 758 mmHg 65%
    01:00 +11°C° 0 mm 3 mps 758 mmHg 65%
    02:00 +11°C° 0 mm 3 mps 757 mmHg 66%
    03:00 +10°C° 0 mm 3 mps 757 mmHg 68%
    04:00 +10°C° 0 mm 3 mps 757 mmHg 69%
    05:00 +10°C° 0 mm 3 mps 757 mmHg 71%
    06:00 +11°C° 0 mm 3 mps 757 mmHg 66%
    07:00 +13°C° 0 mm 4 mps 757 mmHg 61%
    08:00 +15°C° 0 mm 4 mps 756 mmHg 56%
    09:00 +17°C° 0 mm 5 mps 756 mmHg 51%
    10:00 +19°C° 0 mm 6 mps 756 mmHg 47%
    11:00 +21°C° 0 mm 7 mps 755 mmHg 43%
    12:00 +22°C° 0 mm 7 mps 755 mmHg 41%
    13:00 +22°C° 0 mm 7 mps 754 mmHg 40%
    14:00 +22°C° 0 mm 7 mps 754 mmHg 38%
    15:00 +22°C° 0 mm 6 mps 753 mmHg 41%
    16:00 +22°C° 0 mm 5 mps 753 mmHg 43%
    17:00 +21°C° 0 mm 5 mps 752 mmHg 45%
    18:00 +20°C° 0 mm 4 mps 752 mmHg 51%
    19:00 +18°C° 0 mm 4 mps 752 mmHg 57%
    20:00 +16°C° 0 mm 3 mps 752 mmHg 63%
    21:00 +16°C° 0 mm 3 mps 752 mmHg 65%
    22:00 +14°C° 0 mm 3 mps 751 mmHg 67%
    23:00 +14°C° 0 mm 3 mps 751 mmHg 70%
    Show more